CW2550 Weather Reports


Display with metric or nautical units.
time (UTC)temp
F
wind
direction
speed
MPH
gust
MPH
rain 1hr
in
rain 24hr
in
rain mn
in
humidity
%
barometer
mb
20260906020105 72 0 0.0 1.0 0.00 0.00 0.00 86 1016.2
20260906014549 73 0 0.0 1.0 0.00 0.00 0.00 85 1015.9
20260906013101 73 0 0.0 4.0 0.00 0.00 0.00 85 1015.8
20260906011555 74 0 1.0 4.0 0.00 0.00 0.00 84 1015.4
20260906010055 74 133 0.0 4.0 0.00 0.00 0.00 83 1015.3
20260906004603 75 0 0.0 4.0 0.00 0.00 0.00 83 1015.5
20260906003056 75 0 2.0 7.0 0.00 0.00 0.00 82 1015.4
20260906001553 75 128 1.0 7.0 0.00 0.00 0.00 81 1015.4
20260906000100 76 94 2.0 9.0 0.00 0.00 0.00 80 1015.2
20260905234558 76 117 1.0 8.0 0.00 0.00 0.00 79 1015.4
20260905233051 77 162 3.0 10.0 0.00 0.00 0.00 78 1015.1
20260905231555 78 131 3.0 11.0 0.00 0.00 0.00 78 1014.9
20260905230045 78 95 2.0 11.0 0.00 0.00 0.00 77 1014.8
20260905224541 79 123 2.0 8.0 0.00 0.00 0.00 76 1014.5
20260905223052 80 122 3.0 9.0 0.00 0.00 0.00 76 1014.2
20260905221543 79 61 3.0 9.0 0.00 0.00 0.00 77 1014.2
20260905214545 80 71 3.0 8.0 0.00 0.00 0.00 76 1014.1
20260905213052 80 57 1.0 4.0 0.00 0.00 0.00 76 1014.3
20260905211553 80 59 1.0 4.0 0.00 0.00 0.00 76 1014.4
20260905210058 80 42 3.0 10.0 0.00 0.00 0.00 76 1014.2
20260905204550 80 24 5.0 12.0 0.00 0.00 0.00 75 1014.5
20260905203107 80 39 4.0 10.0 0.00 0.00 0.00 76 1015.0
20260905201552 80 61 4.0 9.0 0.00 0.00 0.00 77 1015.2
20260905200051 80 60 3.0 8.0 0.00 0.00 0.00 77 1015.3
20260905194544 80 35 2.0 5.0 0.00 0.00 0.00 76 1015.5
20260905193055 80 134 2.0 10.0 0.00 0.00 0.00 77 1015.8
20260905191550 81 61 2.0 5.0 0.00 0.00 0.00 75 1015.8
20260905190052 80 127 0.0 6.0 0.00 0.00 0.00 78 1016.2
20260905184550 80 122 0.0 3.0 0.00 0.00 0.00 78 1016.1
20260905183055 79 133 4.0 8.0 0.00 0.00 0.00 79 1016.2
20260905181549 78 106 1.0 6.0 0.00 0.00 0.00 82 1016.3
20260905180046 78 136 1.0 7.0 0.00 0.00 0.00 82 1016.6
20260905174555 76 96 1.0 5.0 0.00 0.00 0.00 85 1016.7
20260905173048 75 0 0.0 4.0 0.00 0.00 0.00 89 1017.0
20260905171555 73 0 0.0 2.0 0.00 0.00 0.00 93 1017.2
20260905170043 72 0 0.0 0.0 0.00 0.00 0.00 94 1017.3
20260905164552 72 0 0.0 0.0 0.00 0.00 0.00 95 1017.2
20260905163052 71 0 0.0 2.0 0.00 0.00 0.00 95 1017.4
20260905161554 70 62 2.0 5.0 0.00 0.00 0.00 95 1017.0
20260905154630 69 0 1.0 5.0 0.00 0.00 0.00 95 1017.2
20260905153054 69 0 0.0 4.0 0.00 0.00 0.00 95 1017.2
20260905151548 69 123 0.0 4.0 0.00 0.00 0.00 95 1017.0
20260905150058 69 140 2.0 5.0 0.00 0.00 0.00 95 1016.7
20260905144559 69 51 2.0 6.0 0.00 0.00 0.00 95 1016.6
20260905143059 68 42 2.0 4.0 0.00 0.00 0.00 95 1016.7
20260905141558 68 0 0.0 4.0 0.00 0.00 0.00 95 1016.7
20260905140100 68 22 2.0 5.0 0.00 0.00 0.00 95 1016.4
20260905134548 67 18 2.0 5.0 0.00 0.00 0.00 95 1016.4
20260905133102 67 24 1.0 3.0 0.00 0.00 0.00 95 1016.4
20260905131557 67 24 1.0 3.0 0.00 0.00 0.00 95 1016.3
20260905130053 67 24 1.0 4.0 0.00 0.00 0.00 95 1016.2
20260905124550 67 19 1.0 4.0 0.00 0.00 0.00 95 1015.6
20260905123045 66 43 2.0 5.0 0.00 0.00 0.00 95 1015.2
20260905121555 66 30 2.0 4.0 0.00 0.00 0.00 95 1015.0
20260905120055 66 0 0.0 0.0 0.00 0.00 0.00 95 1015.3
20260905114559 66 0 0.0 0.0 0.00 0.00 0.00 95 1015.1
20260905113044 66 0 0.0 2.0 0.00 0.00 0.00 95 1015.0
20260905111603 66 0 0.0 5.0 0.00 0.00 0.00 94 1014.7
20260905110056 65 46 1.0 5.0 0.00 0.00 0.00 94 1014.8
20260905104607 65 51 1.0 3.0 0.00 0.00 0.00 94 1014.8
20260905103055 65 51 0.0 4.0 0.00 0.00 0.00 94 1014.9
20260905101554 65 0 2.0 6.0 0.00 0.00 0.00 94 1015.0
20260905100052 65 30 2.0 7.0 0.00 0.00 0.00 94 1014.7
20260905094652 65 13 0.0 7.0 0.00 0.00 0.00 94 1014.1
20260905093044 65 19 4.0 7.0 0.00 0.00 0.00 94 1013.9
20260905091557 65 24 3.0 7.0 0.00 0.00 0.00 93 1014.1
20260905090046 65 27 0.0 4.0 0.00 0.00 0.00 93 1014.3
20260905084603 65 22 0.0 3.0 0.00 0.00 0.00 93 1014.3
20260905083049 66 0 0.0 0.0 0.00 0.00 0.00 93 1014.3
20260905081549 66 0 0.0 0.0 0.00 0.00 0.00 92 1014.4
20260905074601 67 22 2.0 5.0 0.00 0.00 0.00 92 1014.5
20260905073107 67 11 2.0 3.0 0.00 0.00 0.00 92 1014.7
20260905071553 67 15 1.0 4.0 0.00 0.00 0.00 91 1014.6
20260905070050 67 10 2.0 4.0 0.00 0.00 0.00 91 1014.6
20260905064544 68 5 1.0 3.0 0.00 0.00 0.00 90 1014.5
20260905063050 68 33 1.0 3.0 0.00 0.00 0.00 90 1014.4
20260905061602 68 35 1.0 3.0 0.00 0.00 0.00 89 1014.3
20260905060104 69 36 1.0 3.0 0.00 0.00 0.00 89 1014.4
20260905054555 69 42 1.0 3.0 0.00 0.00 0.00 89 1014.3
20260905053044 70 49 1.0 3.0 0.00 0.00 0.00 89 1014.2
20260905051604 70 360 1.0 3.0 0.00 0.00 0.00 88 1014.0
20260905050057 70 360 1.0 4.0 0.00 0.00 0.00 87 1014.1
20260905044545 71 32 1.0 4.0 0.00 0.00 0.00 87 1013.9
20260905043052 71 32 2.0 4.0 0.00 0.00 0.00 86 1014.0
20260905041556 72 38 1.0 3.0 0.00 0.00 0.00 86 1013.9
20260905040049 72 38 1.0 3.0 0.00 0.00 0.00 85 1014.1
20260905034554 73 38 2.0 4.0 0.00 0.00 0.00 84 1014.2
20260905033104 73 30 3.0 6.0 0.00 0.00 0.00 84 1014.1
20260905031549 74 24 2.0 5.0 0.00 0.00 0.00 83 1013.9
20260905030048 75 26 3.0 5.0 0.00 0.00 0.00 83 1013.8
20260905024559 75 26 2.0 4.0 0.00 0.00 0.00 83 1013.9
20260905023052 76 26 2.0 4.0 0.00 0.00 0.00 83 1013.7
20260905021548 76 5 2.0 4.0 0.00 0.00 0.00 83 1013.3